Charleston, WV

12:49 PM EDT on August 25, 2019 (GMT -0400)
Yeager Airport

Weather History for KCRW - June, 2019

Change the Weather History Date:

Monday, June 3, 2019

  Actual Average Record
Temperature  
Mean Temperature 63 °F 69 °F  
Max Temperature 73 °F 79 °F 98 °F (1925)
Min Temperature 53 °F 58 °F 42 °F (1966)
Degree Days  
Heating Degree Days 2 1  
Month to date heating degree days 2 3  
Since 1 June heating degree days 2 3  
Since 1 July heating degree days 4146 4468  
Cooling Degree Days 0 5  
Month to date cooling degree days 9 14  
Year to date cooling degree days 205 124  
Since 1 June cooling degree days 9 14  
Growing Degree Days 15 (Base 50)    
Moisture  
Dew Point 50 °F    
Average Humidity 65    
Maximum Humidity 93    
Minimum Humidity 37    
Precipitation  
Precipitation 0.00 in 0.16 in 1.26 in (1907)
Month to date precipitation T 0.48  
Year to date precipitation 22.23 18.62  
Sea Level Pressure  
Sea Level Pressure 30.06 in    
Wind  
Wind Speed 3 mph (North)    
Max Wind Speed 13 mph    
Max Gust Speed 17 mph    
Visibility 10 miles    
Events      
T = Trace of Precipitation, MM = Missing Value Source: NWS Daily Summary

Daily Weather History Graph

Daily Weather History Graph

Search for Another Location

Airport or City:

Astronomy

Jun. 03, 2019 Rise Set
Actual Time 6:03 AM EDT 8:45 PM EDT
Civil Twilight 5:32 AM EDT 9:16 PM EDT
Nautical Twilight 4:53 AM EDT 9:55 PM EDT
Astronomical Twilight 4:09 AM EDT 10:39 PM EDT
Moon 6:22 AM EDT (6/3) 9:09 PM EDT (6/3)
Length of Visible Light 15h 44m
Length of Day
14h 41m
New Moon, 0% of the Moon is Illuminated
Jun 3
New Moon
Jun 10
First Quarter
Jun 17
Full
Jun 25
Last Quarter
Jul 2
New

Hourly Weather History & Observations

Time (EDT) Temp. Dew Point Humidity Pressure Visibility Wind Dir Wind Speed Gust Speed Precip Events Conditions
12:54 AM 64.0 °F 57.9 °F 80% 29.92 in 10.0 mi Calm Calm - N/A   Mostly Cloudy
1:54 AM 61.0 °F 57.9 °F 90% 29.92 in 10.0 mi Calm Calm - N/A   Scattered Clouds
2:54 AM 60.1 °F 57.0 °F 90% 29.92 in 10.0 mi Calm Calm - N/A   Scattered Clouds
3:54 AM 59.0 °F 57.0 °F 93% 29.94 in 10.0 mi Calm Calm - N/A   Scattered Clouds
4:54 AM 57.0 °F 55.9 °F 96% 29.97 in 10.0 mi Calm Calm - N/A   Scattered Clouds
5:54 AM 57.9 °F 53.1 °F 84% 29.99 in 10.0 mi Calm Calm - N/A   Mostly Cloudy
6:54 AM 57.0 °F 51.1 °F 81% 30.04 in 10.0 mi WNW 3.5 mph - N/A   Mostly Cloudy
7:54 AM 60.1 °F 50.0 °F 69% 30.06 in 10.0 mi Calm Calm - N/A   Scattered Clouds
8:54 AM 61.0 °F 48.9 °F 64% 30.08 in 10.0 mi NE 5.8 mph - N/A   Clear
9:54 AM 63.0 °F 48.0 °F 58% 30.09 in 10.0 mi ENE 6.9 mph - N/A   Clear
10:54 AM 66.0 °F 46.9 °F 50% 30.11 in 10.0 mi Variable 3.5 mph - N/A   Partly Cloudy
11:54 AM 68.0 °F 45.0 °F 43% 30.12 in 10.0 mi NE 3.5 mph - N/A   Scattered Clouds
12:54 PM 69.1 °F 42.1 °F 38% 30.12 in 10.0 mi NNW 10.4 mph - N/A   Scattered Clouds
1:54 PM 71.1 °F 45.0 °F 39% 30.11 in 10.0 mi North 8.1 mph - N/A   Scattered Clouds
2:54 PM 72.0 °F 46.0 °F 40% 30.09 in 10.0 mi Variable 3.5 mph - N/A   Scattered Clouds
3:54 PM 70.0 °F 44.1 °F 39% 30.10 in 10.0 mi Variable 5.8 mph - N/A   Scattered Clouds
4:54 PM 71.1 °F 44.1 °F 38% 30.09 in 10.0 mi NW 10.4 mph - N/A   Scattered Clouds
5:54 PM 71.1 °F 45.0 °F 39% 30.10 in 10.0 mi NW 5.8 mph - N/A   Scattered Clouds
6:54 PM 70.0 °F 46.9 °F 44% 30.10 in 10.0 mi Variable 5.8 mph - N/A   Scattered Clouds
7:54 PM 69.1 °F 46.9 °F 45% 30.09 in 10.0 mi NNW 3.5 mph - N/A   Clear
8:54 PM 63.0 °F 51.1 °F 65% 30.11 in 10.0 mi Calm Calm - N/A   Partly Cloudy
9:54 PM 57.9 °F 51.1 °F 78% 30.12 in 10.0 mi SSE 3.5 mph - N/A   Clear
10:54 PM 57.9 °F 50.0 °F 75% 30.14 in 10.0 mi Calm Calm - N/A   Clear
11:54 PM 55.0 °F 51.1 °F 86% 30.14 in 10.0 mi Calm Calm - N/A   Clear